User: anonymous   Login
Location: Unspecified
(0.0000°N, 0.0000°E)
Time: 12:48:01
(UTC+00:00)
Language:

AGILE - Orbit

View from above orbital plane
View from above orbital plane
View from above satellite
View from above satellite

Ground track
Ground track

The orbit data is extracted from the following two-line orbital elements,

1 31135U 07013A   18016.36330172  .00002337  00000-0  39842-4 0  9990
2 31135   2.4669 248.2607 0012234  77.8540 282.2884 15.30441897596426
Epoch (UTC): 16 January 2018 08:43:09
Eccentricity: 0.0012234
inclination: 2.4669°
perigee height: 466 km
apogee height: 483 km
right ascension of ascending node: 248.2607°
argument of perigee: 77.8540°
revolutions per day: 15.30441897
mean anomaly at epoch: 282.2884°
orbit number at epoch: 59642

The dashed part of the orbit path shows where the satellite is in the earth's shadow,  

DLR